Location: Niverville
(49.6028°N, 97.0419°W)
Time: 04:19:06
(UTC-06:00)

ISS - All Passes

Search period start: 24 February 2017 00:00
Search period end: 06 March 2017 00:00
Orbit: 399 x 408 km, 51.6° (Epoch: 24 February)

Date Brightness Start Highest point End Pass type
(mag) Time Alt. Az. Time Alt. Az. Time Alt. Az.
24 Feb - 09:25:34 10° SW 09:28:38 36° SSE 09:31:43 10° E daylight
24 Feb - 11:01:41 10° W 11:04:59 71° NNW 11:08:18 10° ENE daylight
24 Feb - 12:38:22 10° WNW 12:41:39 63° N 12:44:56 10° E daylight
24 Feb - 14:14:54 10° WNW 14:18:07 50° SSW 14:21:19 10° SE daylight
24 Feb - 15:53:04 10° WSW 15:53:58 11° SW 15:54:52 10° SSW daylight
25 Feb - 08:33:33 10° SSW 08:36:15 23° SE 08:38:57 10° E daylight
25 Feb - 10:09:07 10° WSW 10:12:26 90° SSE 10:15:45 10° ENE daylight
25 Feb - 11:45:47 10° W 11:49:03 58° N 11:52:19 10° E daylight
25 Feb - 13:22:19 10° WNW 13:25:38 75° SSW 13:28:54 10° ESE daylight
25 Feb - 14:59:22 10° W 15:01:41 18° SW 15:04:00 10° S daylight
26 Feb - 07:41:59 10° S 07:43:55 15° SE 07:45:52 10° ESE daylight
26 Feb - 09:16:37 10° WSW 09:19:54 64° SSE 09:23:11 10° ENE daylight
26 Feb - 10:53:09 10° W 10:56:26 59° N 10:59:42 10° ENE daylight
26 Feb - 12:29:45 10° WNW 12:33:04 81° NNE 12:36:22 10° ESE daylight
26 Feb - 14:06:27 10° W 14:09:19 28° SW 14:12:12 10° SSE daylight
27 Feb - 08:24:16 10° SW 08:27:24 42° SSE 08:30:33 10° ENE daylight
27 Feb - 10:00:30 10° W 10:03:48 67° N 10:07:06 10° ENE daylight
27 Feb - 11:37:11 10° WNW 11:40:28 66° N 11:43:45 10° E daylight
27 Feb - 13:13:43 10° WNW 13:16:53 44° SSW 13:20:02 10° SE daylight
28 Feb - 07:32:07 10° SSW 07:34:57 27° SE 07:37:49 10° E daylight
28 Feb - 09:07:53 10° WSW 09:11:12 83° NNW 09:14:31 10° ENE daylight
28 Feb - 10:44:34 10° WNW 10:47:50 59° N 10:51:06 10° E daylight
28 Feb - 12:21:05 10° WNW 12:24:23 67° SSW 12:27:39 10° ESE daylight
28 Feb - 13:58:20 10° W 14:00:22 15° SW 14:02:23 10° S daylight
01 Mar - 06:40:19 10° S 06:42:34 17° SE 06:44:49 10° E visible
01 Mar - 08:15:19 10° WSW 08:18:36 73° SSE 08:21:55 10° ENE daylight
01 Mar - 09:51:54 10° W 09:55:10 58° N 09:58:27 10° ENE daylight
01 Mar - 11:28:29 10° WNW 11:31:48 88° NNE 11:35:06 10° ESE daylight
01 Mar - 13:05:15 10° W 13:07:59 24° SW 13:10:44 10° SSE daylight
02 Mar - 05:49:41 10° SE 05:50:14 10° SE 05:50:48 10° SE visible
02 Mar - 07:22:52 10° SW 07:26:04 48° SSE 07:29:16 10° ENE daylight
02 Mar - 08:59:13 10° W 09:02:30 64° N 09:05:48 10° ENE daylight
02 Mar - 10:35:52 10° WNW 10:39:10 70° NNE 10:42:28 10° E daylight
02 Mar - 12:12:26 10° W 12:15:32 38° SSW 12:18:37 10° SE daylight
03 Mar - 06:30:36 10° SSW 06:33:34 31° SSE 06:36:31 10° E visible
03 Mar - 08:06:32 10° WSW 08:09:51 77° NNW 08:13:10 10° ENE daylight
03 Mar - 09:43:13 10° WNW 09:46:30 60° N 09:49:47 10° E daylight
03 Mar - 11:19:44 10° WNW 11:23:00 59° SSW 11:26:15 10° SE daylight
03 Mar - 12:57:17 10° WSW 12:58:56 13° SW 13:00:35 10° SSW daylight
04 Mar - 05:38:38 10° S 05:41:07 20° SE 05:43:36 10° E visible
04 Mar - 07:13:55 10° WSW 07:17:13 81° SSE 07:20:32 10° ENE daylight
04 Mar - 08:50:32 10° W 08:53:48 58° N 08:57:04 10° E daylight
04 Mar - 10:27:05 10° WNW 10:30:24 85° SSW 10:33:42 10° ESE daylight
04 Mar - 12:03:58 10° W 12:06:32 21° SW 12:09:06 10° SSE daylight
05 Mar - 04:47:19 10° SSE 04:48:43 12° SE 04:50:08 10° ESE visible
05 Mar - 06:21:23 10° SW 06:24:37 55° SSE 06:27:51 10° ENE visible
05 Mar - 07:57:49 10° W 08:01:06 61° N 08:04:23 10° ENE daylight
05 Mar - 09:34:26 10° WNW 09:37:45 74° NNE 09:41:03 10° E daylight
05 Mar - 11:11:02 10° W 11:14:04 33° SSW 11:17:04 10° SSE daylight
